Regional Weather Roundup
Issued by NWS

Home | Current Version | Previous Version | Text Only | Print | Product List | Glossary Off
Versions: 1 2 3 4 5 6 7 8 9 10 11 12 13 14 15 16 17 18 19 20 21 22 23 24 25 26 27 28 29 30 31 32 33 34 35 36 37 38 39 40 41 42 43 44 45 46 47 48 49 50

000
ASUS43 KTOP 312259
RWRKS

WEATHER ROUNDUP FOR KANSAS
NATIONAL WEATHER SERVICE GOODLAND KS
600 PM CDT FRI JUL 31 2015

NOTE:  "FAIR" INDICATES FEW OR NO CLOUDS BELOW 12,000 FEET WITH NO
SIGNIFICANT WEATHER AND/OR OBSTRUCTIONS TO VISIBILITY.

KSZ001>006-013>018-027>032-041>047-010000-
NORTHWEST KANSAS

CITY           SKY/WX    TMP DP  RH WIND       PRES   REMARKS
GOODLAND       MOSUNNY   89  55  31 S9        30.16F
HAYS           SUNNY     91  59  33 S9        30.08F
HILL CITY      SUNNY     94  61  33 S7        30.08F
RUSSELL        SUNNY     92  63  38 S8        30.06F
$$

KSZ061>065-074>080-084>089-010000-
SOUTHWEST KANSAS

CITY           SKY/WX    TMP DP  RH WIND       PRES   REMARKS
DODGE CITY     MOSUNNY   88  61  40 SE7       30.12F
ELKHART          N/A     83  62  49 SE8         N/A
GARDEN CITY    SUNNY     87  63  44 E7        30.12F
GREAT BEND     SUNNY     90  63  40 SE6       30.08S
LIBERAL        MOSUNNY   84  61  45 E8        30.13S
$$

KSZ066>073-081>083-090>101-010000-
SOUTHEAST KANSAS

CITY           SKY/WX    TMP DP  RH WIND       PRES   REMARKS
CHANUTE        MOSUNNY   90  69  50 SE7       30.06F
COFFEYVILLE    MOSUNNY   89  72  56 S9        30.06S HX  96
HUTCHINSON     SUNNY     90  66  45 E5        30.09S
MEDICINE LODGE   N/A     88  69  53 VRB5      30.07F
NEWTON         MOSUNNY   88  66  48 S3        30.12S
PARSONS        MOSUNNY   90  74  59 SE5       30.07F HX  99
WICHITA INTL   PTSUNNY   90  69  50 S6        30.07F
WICHITA JABRA  SUNNY     89  67  47 E5        30.08S
WINFIELD       MOSUNNY   88  70  55 SE3       30.07F
$$

KSZ007>012-019>026-033>040-048>060-102>105-010000-
NORTHEAST KANSAS

CITY           SKY/WX    TMP DP  RH WIND       PRES   REMARKS
CONCORDIA      SUNNY     91  64  40 SE9       30.05F
EMPORIA        SUNNY     90  66  45 MISG      30.07F
LAWRENCE       SUNNY     90  65  43 N5        30.05F
MANHATTAN      SUNNY     91  70  49 E5        30.05F HX  96
OLATHE IND     SUNNY     88  66  48 NW3       30.07F
OLATHE EXE     SUNNY     88  64  44 W5        30.06F
SALINA         SUNNY     92  68  45 S7        30.06F HX  96
TOPEKA BILLARD SUNNY     89  65  44 SE3       30.05F
TOPEKA FORBES  SUNNY     92  66  42 CALM      30.06F
$$



USA.gov is the U.S. government's official web portal to all federal, state and local government web resources and services.